Location: Jaworzyna Śląska
(50.9128°N, 16.4318°E)
Time: 22:34:47
(UTC+02:00)

Envisat - Visible Passes

Search period start: 19 October 2019 00:00
Search period end: 28 October 2019 23:00
Orbit: 764 x 766 km, 98.1° (Epoch: 19 October)

Date Brightness Start Highest point End Pass type
(mag) Time Alt. Az. Time Alt. Az. Time Alt. Az.
19 Oct 3.0 18:30:03 10° SSE 18:35:04 67° ENE 18:40:08 10° N visible
19 Oct 5.6 20:10:52 10° SW 20:14:35 20° W 20:18:20 10° NW visible
20 Oct 6.2 06:34:58 10° NE 06:38:06 16° E 06:41:14 10° SE visible
20 Oct 4.5 19:32:44 10° SSW 19:37:28 39° W 19:42:15 10° NNW visible
21 Oct 3.2 18:55:29 10° S 19:00:33 78° WSW 19:05:41 10° NNW visible
21 Oct 6.1 20:38:24 10° WSW 20:40:27 12° W 20:42:31 10° WNW visible
22 Oct 3.1 18:18:53 10° SE 18:23:50 55° ENE 18:28:49 10° N visible
22 Oct 5.3 19:59:04 10° SW 20:03:12 25° W 20:07:21 10° NW visible
23 Oct 6.3 06:24:19 10° ENE 06:26:41 13° E 06:29:02 10° ESE visible
23 Oct 4.1 19:21:15 10° S 19:26:09 48° W 19:31:05 10° NNW visible
24 Oct 3.0 18:44:12 10° SSE 18:49:17 87° ENE 18:54:25 10° NNW visible
24 Oct 6.0 20:26:05 10° WSW 20:29:01 15° W 20:31:59 10° NW visible
25 Oct 5.9 06:48:40 10° NE 06:52:33 21° E 06:56:23 10° SE visible
25 Oct 5.0 19:47:24 10° SSW 19:51:49 30° W 19:56:17 10° NNW visible
26 Oct 6.7 06:14:20 10° ENE 06:15:14 10° E 06:16:07 10° E visible
26 Oct 3.6 19:09:49 10° S 19:14:50 59° W 19:19:52 10° NNW visible
27 Oct 2.9 17:32:58 10° SSE 17:38:02 72° ENE 17:43:07 10° N visible
27 Oct 5.7 19:14:04 10° SW 19:17:37 19° W 19:21:10 10° NW visible
28 Oct 6.0 05:37:45 10° NE 05:41:08 18° E 05:44:30 10° SE visible
28 Oct 4.6 18:35:48 10° SSW 18:40:28 36° W 18:45:10 10° NNW visible
